[[{"header":{"parameterUnit":"m.s-1","parameterCategory":1,"la1":30.2991,"la2":30.254,"lo1":-89.0895,"lo2":-89.0444,"dy":0.0017,"dx":0.0017,"nx":28,"ny":28,"refTime":"2023-09-06T03:00:00:Z","depth":0,"parameterNumber":2,"parameterNumberName":"U-component_of_WINDS"},"data":[0,0,0,0,0,0,0,0,0,0,0,0,0,0,0,0,0,0,0,0,0,0,0,0,0,0,0,0,0,0,0,0,0,0,0,0,0,0,0,0,0,0,0,0,0,0,0,0,0,0,0,0,0,0,0,0,0,0,-2.7297,-2.7298,0,-2.7394,-2.7395,-2.7396,-2.7375,-2.7373,-2.7371,-2.737,-2.7469,-2.7473,-2.7477,0,0,0,0,0,0,0,0,0,0,0,0,0,-2.7092,-2.7096,-2.7297,-2.7298,-2.7299,-2.7394,-2.7395,-2.7397,-2.7375,-2.7373,-2.7371,-2.7369,-2.7467,-2.7472,-2.7477,0,0,0,0,0,0,0,0,0,0,0,0,0,-2.7185,-2.7098,-2.7296,-2.73,-2.7301,-2.7394,-2.7395,-2.7397,-2.7376,-2.7373,-2.737,-2.7368,-2.7465,-2.7472,-2.7478,-2.7573,0,0,-2.7498,-2.7501,0,0,0,0,0,0,0,0,-2.7179,-2.7192,-2.7298,-2.73,-2.7301,-2.737,-2.736,-2.7456,-2.7377,-2.7348,-2.737,-2.7366,-2.7438,-2.7446,-2.7471,-2.7578,-2.7582,-2.7499,-2.7503,-2.7505,-2.7507,0,0,0,0,0,0,0,-2.7173,-2.7188,-2.7335,-2.73,-2.7302,-2.7297,-2.7307,-2.7378,-2.7407,-2.735,-2.7348,-2.736,-2.7438,-2.7464,-2.7473,-2.7583,-2.7498,-2.7504,-2.7508,-2.7511,-2.7774,-2.7777,0,0,0,0,0,0,-2.7165,-2.7183,-2.7332,-2.7338,-2.7233,-2.7303,-2.7314,-2.7351,-2.7406,-2.7412,-2.7363,-2.7359,-2.7455,-2.7465,-2.7476,-2.7591,-2.7505,-2.7511,-2.7515,-2.7771,-2.7774,-2.7778,0,0,0,0,0,0,-2.7161,-2.7179,-2.7328,-2.726,-2.7279,-2.7309,-2.735,-2.7354,-2.738,-2.7416,-2.7421,-2.7384,-2.7453,-2.7467,-2.7549,-2.7594,-2.7514,-2.752,-2.7767,-2.7772,-2.7776,-2.782,0,0,0,0,0,0,-2.7155,-2.7177,-2.7213,-2.7261,-2.7282,-2.74,-2.7353,-2.7358,-2.7391,-2.7388,-2.7437,-2.7443,-2.7452,-2.754,-2.7556,-2.7601,-2.7525,-2.7763,-2.7769,-2.7775,-2.7815,-2.7826,-2.7835,0,0,0,0,0,-2.7148,-2.7222,-2.7215,-2.7234,-2.7328,-2.7402,-2.7414,-2.7424,-2.7395,-2.7432,-2.7455,-2.7441,-2.7587,-2.7548,-2.7566,-2.7614,-2.776,-2.7767,-2.7774,-2.781,-2.7824,-2.7835,0,0,0,0,0,0,-2.7178,-2.7228,-2.7221,-2.7313,-2.7354,-2.7398,-2.7444,-2.7437,-2.7487,-2.7481,-2.7491,-2.7502,-2.7586,-2.7609,-2.7565,-2.7709,-2.7669,-2.768,-2.7691,-2.7704,-2.7714,-2.7706,-2.7531,0,0,0,0,0,-2.7195,-2.7251,-2.7292,-2.7369,-2.739,-2.7414,-2.7446,-2.745,-2.7493,-2.7509,-2.7538,-2.758,-2.7635,-2.7671,-2.7724,-2.7819,-2.7829,-2.7861,-2.7871,-2.7879,-2.7888,-2.794,-2.7955,-2.7801,-2.78,-2.78,0,0,-2.7231,-2.7266,-2.73,-2.7376,-2.7407,-2.7465,-2.7428,-2.7491,-2.7533,-2.7519,-2.7598,-2.7621,-2.7668,-2.7757,-2.7798,-2.7779,-2.7934,-2.7888,-2.7895,-2.7899,-2.7949,-2.7964,-2.7977,-2.7805,-2.7804,-2.7804,0,0,-2.7326,-2.7358,-2.7425,-2.7458,-2.7508,-2.7524,-2.754,-2.7587,-2.7601,-2.7681,-2.7672,-2.7724,-2.7818,-2.7852,-2.7882,-2.7992,-2.7981,-2.8009,-2.8061,-2.8112,-2.8124,-2.8135,-2.8174,-2.8188,-2.8018,-2.8018,-2.8018,0,-2.7364,-2.745,-2.7461,-2.7524,-2.7558,-2.7549,-2.7617,-2.7649,-2.7713,-2.7736,-2.7714,-2.7834,-2.7865,-2.7962,-2.7989,-2.8014,-2.8032,-2.8002,-2.8122,-2.8133,-2.8143,-2.818,-2.8194,-2.8021,-2.8021,-2.8021,-2.802,0,-2.7495,-2.7555,-2.7604,-2.7666,-2.7705,-2.7771,-2.7791,-2.783,-2.7832,-2.785,-2.7932,-2.797,-2.803,-2.8054,-2.8055,-2.8152,-2.8138,-2.8119,-2.8079,-2.816,-2.8195,-2.821,-2.8026,-2.8025,-2.8024,-2.8023,0,0,-2.7609,-2.7677,-2.7695,-2.7723,-2.7778,-2.7824,-2.7891,-2.795,-2.7983,-2.8028,-2.8083,-2.8165,-2.8148,-2.8182,-2.8188,-2.8233,-2.8317,-2.8208,-2.8209,-2.8226,-2.8425,-2.8438,-2.8454,-2.8311,-2.8314,-2.8316,-2.8421,0,-2.7707,-2.7823,-2.7835,-2.7938,-2.7994,-2.7988,-2.8045,-2.8085,-2.8105,-2.8155,-2.8177,-2.8234,-2.8208,-2.8229,-2.8273,-2.8297,-2.8357,-2.829,-2.8362,-2.8365,-2.8349,-2.8472,-2.8486,-2.8582,-2.8435,-2.8437,-2.8439,0,-2.7837,-2.7887,-2.7996,-2.8043,-2.8067,-2.8119,-2.8174,-2.8223,-2.8269,-2.828,-2.8319,-2.8319,-2.8388,-2.8347,-2.8441,-2.8395,-2.8426,-2.8443,-2.8447,-2.8452,-2.8405,-2.848,-2.8614,-2.8628,-2.846,-2.8459,-2.8457,0,-2.7908,-2.8002,-2.8079,-2.8104,-2.8162,-2.8198,-2.8224,-2.8267,-2.8302,-2.8352,-2.8375,-2.8432,-2.8462,-2.8507,-2.8523,-2.8491,-2.8616,-2.8576,-2.8627,-2.8627,-2.8652,-2.865,-2.8791,-2.8674,-2.8674,-2.8674,-2.8674,0,-2.8016,-2.8083,-2.8112,-2.8159,-2.8234,-2.8248,-2.8322,-2.8346,-2.8385,-2.8437,-2.8436,-2.8485,-2.8504,-2.8556,-2.857,-2.8645,-2.866,-2.8671,-2.8673,-2.867,-2.8668,-2.8688,-2.8682,-2.8678,-2.8677,-2.8676,-2.8676,0,-2.8107,-2.8129,-2.8213,-2.8261,-2.8275,-2.8328,-2.837,-2.8416,-2.8436,-2.8502,-2.8518,-2.855,-2.8612,-2.8633,-2.8707,-2.8716,-2.8805,-2.8802,-2.8789,-2.8789,-2.8838,-2.8833,-2.8996,-2.9018,-2.8888,-2.8889,-2.889,0,-2.8173,-2.8225,-2.8279,-2.8314,-2.8341,-2.8397,-2.8434,-2.845,-2.8488,-2.8545,-2.8584,-2.8646,-2.8696,-2.8795,-2.8825,-2.8882,-2.888,-2.8934,-2.8889,-2.8884,-2.888,-2.8876,-2.8881,-2.8941,-2.8942,-2.8943,-2.8944,0,-2.8289,-2.8298,-2.835,-2.8407,-2.8451,-2.8496,-2.854,-2.8569,-2.8592,-2.8635,-2.8698,-2.8737,-2.8814,-2.8875,-2.8935,-2.8962,-2.8957,-2.8959,-2.8973,-2.897,-2.896,-2.8965,-2.881,-2.8954,-2.8953,-2.8953,-2.8952,-2.8952,-2.8369,-2.8414,-2.8459,-2.8518,-2.8553,-2.8595,-2.8641,-2.8667,-2.872,-2.8784,-2.8791,-2.8859,-2.8905,-2.8984,-2.9014,-2.9068,-2.9053,-2.9074,-2.9079,-2.9084,-2.9087,-2.8953,-2.9079,-2.9079,-2.9078,-2.9078,-2.9078,0,-2.8483,-2.8513,-2.8567,-2.8628,-2.8675,-2.8668,-2.8717,-2.8756,-2.8816,-2.8859,-2.8909,-2.8982,-2.9042,-2.9077,-2.9137,-2.9173,-2.9173,-2.9188,-2.9185,-2.9191,-2.9098,-2.9078,-2.9188,-2.9188,-2.9188,-2.9188,-2.9188,-2.9188,-2.8548,-2.8624,-2.8639,-2.8733,-2.8762,-2.8829,-2.8857,-2.8896,-2.893,-2.9012,-2.9062,-2.9085,-2.9125,-2.9188,-2.9243,-2.9252,-2.9274,-2.9291,-2.9298,-2.9209,-2.9198,-2.9187,-2.9169,-2.9296,-2.9296,-2.9387,-2.9388,-2.9388]},{"header":{"parameterUnit":"m.s-1","parameterCategory":1,"la1":30.2991,"la2":30.254,"lo1":-89.0895,"lo2":-89.0444,"dy":0.0017,"dx":0.0017,"nx":28,"ny":28,"refTime":"2023-09-06T03:00:00:Z","depth":0,"parameterNumber":3,"parameterNumberName":"V-component_of_WINDS"},"data":[0,0,0,0,0,0,0,0,0,0,0,0,0,0,0,0,0,0,0,0,0,0,0,0,0,0,0,0,0,0,0,0,0,0,0,0,0,0,0,0,0,0,0,0,0,0,0,0,0,0,0,0,0,0,0,0,0,0,0.4876,0.4876,0,0.4856,0.4856,0.4855,0.4851,0.4851,0.4851,0.4851,0.4826,0.4826,0.4825,0,0,0,0,0,0,0,0,0,0,0,0,0,0.4908,0.4908,0.4876,0.4876,0.4876,0.4856,0.4856,0.4855,0.4851,0.4851,0.4851,0.4851,0.4827,0.4826,0.4825,0,0,0,0,0,0,0,0,0,0,0,0,0,0.4892,0.4908,0.4876,0.4871,0.4871,0.4856,0.4856,0.4855,0.4851,0.4851,0.4851,0.4851,0.4827,0.4826,0.4824,0.4812,0,0,0.4821,0.482,0,0,0,0,0,0,0,0,0.4893,0.4891,0.4872,0.4872,0.4871,0.4856,0.4858,0.4841,0.4851,0.4858,0.4851,0.4852,0.4836,0.4834,0.4829,0.4811,0.481,0.4821,0.482,0.4819,0.4819,0,0,0,0,0,0,0,0.4894,0.4891,0.4868,0.4872,0.4871,0.4869,0.4867,0.4854,0.4846,0.4858,0.4857,0.4855,0.4835,0.4831,0.4829,0.481,0.4821,0.482,0.4819,0.4818,0.478,0.478,0,0,0,0,0,0,0.4896,0.4892,0.4869,0.4867,0.4883,0.4868,0.4866,0.4861,0.4846,0.4844,0.4855,0.4855,0.4833,0.483,0.4828,0.4813,0.4819,0.4818,0.4818,0.4781,0.478,0.478,0,0,0,0,0,0,0.4897,0.4894,0.487,0.488,0.4877,0.4867,0.4862,0.486,0.4855,0.4844,0.4842,0.4852,0.4833,0.483,0.4817,0.4812,0.4818,0.4817,0.4781,0.4781,0.478,0.4782,0,0,0,0,0,0,0.4898,0.4895,0.489,0.488,0.4876,0.486,0.4861,0.4859,0.4854,0.4853,0.484,0.4838,0.4833,0.4818,0.4815,0.481,0.4816,0.4781,0.4781,0.478,0.4782,0.4782,0.4781,0,0,0,0,0,0.4899,0.4891,0.489,0.4887,0.4871,0.4859,0.4857,0.4851,0.4853,0.4849,0.4842,0.4839,0.4813,0.4817,0.4814,0.4808,0.4782,0.4781,0.478,0.4783,0.4782,0.4781,0,0,0,0,0,0,0.49,0.4889,0.4889,0.4877,0.4869,0.4859,0.4852,0.4851,0.4841,0.4841,0.4834,0.4831,0.4818,0.4812,0.4817,0.4796,0.4797,0.4796,0.48,0.4799,0.4799,0.48,0.4815,0,0,0,0,0,0.4899,0.4891,0.4882,0.4873,0.4869,0.4862,0.4856,0.4853,0.4844,0.484,0.4832,0.4823,0.4812,0.4806,0.4795,0.4782,0.4779,0.4776,0.4776,0.4775,0.4774,0.4766,0.4765,0.4778,0.4778,0.4778,0,0,0.4896,0.4889,0.4885,0.4873,0.4866,0.4858,0.4859,0.4849,0.4843,0.4838,0.4826,0.482,0.4809,0.4795,0.4789,0.4789,0.477,0.4775,0.4774,0.4773,0.4766,0.4764,0.4763,0.4778,0.4778,0.4778,0,0,0.4887,0.4881,0.4873,0.4867,0.4858,0.4853,0.4851,0.4841,0.4837,0.4825,0.4822,0.4813,0.4796,0.4788,0.4782,0.4771,0.4768,0.4768,0.4765,0.4757,0.4756,0.4755,0.4751,0.475,0.4767,0.4767,0.4767,0,0.4884,0.4872,0.4868,0.486,0.4854,0.4852,0.4843,0.4837,0.4824,0.482,0.4821,0.48,0.4792,0.4777,0.4775,0.477,0.4767,0.4769,0.4757,0.4756,0.4755,0.4751,0.4749,0.4767,0.4767,0.4767,0.4767,0,0.4869,0.4861,0.4855,0.4845,0.4839,0.483,0.4824,0.4818,0.4816,0.4811,0.4798,0.4789,0.4778,0.4774,0.477,0.4758,0.4759,0.4759,0.476,0.4754,0.475,0.4748,0.4767,0.4767,0.4767,0.4767,0,0,0.4858,0.4847,0.4845,0.4841,0.4831,0.4824,0.4815,0.4805,0.48,0.4792,0.4784,0.477,0.477,0.4763,0.4759,0.4752,0.4744,0.4753,0.4752,0.4751,0.473,0.473,0.4729,0.4743,0.4743,0.4742,0.4731,0,0.4848,0.4833,0.483,0.4816,0.4809,0.4807,0.4799,0.4792,0.4787,0.4779,0.4773,0.4763,0.4764,0.476,0.4754,0.4747,0.474,0.4748,0.4734,0.4734,0.4737,0.4727,0.4726,0.4716,0.473,0.4729,0.4729,0,0.4833,0.4826,0.4812,0.4805,0.4801,0.4794,0.4785,0.4778,0.477,0.4767,0.476,0.4757,0.4746,0.4749,0.4735,0.474,0.4734,0.473,0.473,0.4727,0.4731,0.4724,0.4713,0.4711,0.4727,0.4727,0.4727,0,0.4826,0.4813,0.4804,0.48,0.4791,0.4786,0.4781,0.4774,0.4768,0.476,0.4756,0.4746,0.474,0.4733,0.4727,0.4729,0.4712,0.4715,0.4709,0.4709,0.4705,0.4705,0.4692,0.4702,0.4702,0.4702,0.4702,0,0.4814,0.4806,0.4801,0.4795,0.4785,0.4781,0.4772,0.4767,0.4761,0.4753,0.475,0.4743,0.4736,0.4728,0.4723,0.4711,0.4709,0.4705,0.4704,0.4705,0.4706,0.4701,0.4701,0.4702,0.4702,0.4702,0.4702,0,0.4804,0.4801,0.479,0.4783,0.4781,0.4774,0.4767,0.4761,0.4757,0.4747,0.4745,0.4738,0.4728,0.4722,0.4708,0.4705,0.4693,0.4692,0.4696,0.4695,0.4689,0.469,0.4673,0.467,0.4682,0.4682,0.4682,0,0.4797,0.479,0.4783,0.4779,0.4775,0.4767,0.4762,0.4758,0.4753,0.4743,0.4738,0.4728,0.472,0.4704,0.4697,0.4687,0.4686,0.4681,0.4684,0.4686,0.4685,0.4685,0.4685,0.468,0.4679,0.4679,0.4679,0,0.4783,0.4782,0.4775,0.4768,0.4763,0.4756,0.475,0.4746,0.4741,0.4735,0.4726,0.472,0.4707,0.4697,0.4687,0.4681,0.4679,0.4679,0.4677,0.4677,0.468,0.4678,0.4694,0.4679,0.4679,0.4679,0.4679,0.4679,0.4774,0.4768,0.4763,0.4755,0.4751,0.4745,0.4739,0.4735,0.4728,0.4718,0.4716,0.4706,0.4698,0.4685,0.4679,0.4671,0.4671,0.4668,0.4667,0.4667,0.4666,0.4682,0.4669,0.4669,0.4669,0.4669,0.4669,0,0.476,0.4757,0.475,0.4742,0.4736,0.4737,0.473,0.4725,0.4717,0.471,0.4703,0.4692,0.4683,0.4676,0.4666,0.4661,0.466,0.4658,0.4658,0.4657,0.4667,0.4669,0.466,0.466,0.466,0.466,0.466,0.466,0.4752,0.4743,0.4741,0.473,0.4726,0.4718,0.4714,0.4708,0.4703,0.4692,0.4685,0.4681,0.4674,0.4664,0.4656,0.4654,0.465,0.4649,0.4647,0.4655,0.4656,0.4657,0.466,0.4648,0.4648,0.4638,0.4638,0.4638]}]]